Content
SEND FEEDBACK

Daily
Averages
Monthly
Summary
United States of America

EOLINE, ALABAMA


Home > North America > United States > Alabama
Elevation: 140 meters     Latitude: 32 54N     Longitude: 087 15W

WEATHER
 
SELECT A DAY
Number of Records: 197,213;   Date Range: 1/1/95 - 7/29/14
 
SHARE

PRINT THIS DATA

[ ← Previous Day ]
WEATHER ALMANAC - 5 FEBRUARY, 2013
[ Next Day → ]
[ °F ]   °C
Weather ElementAverageHighLow
Temperature10.5 °C14 °C (4:05 pm)6.7 °C (2:53 am)
Dewpoint9.2 °C12 °C (4:05 pm)3.9 °C (2:53 am)
Humidity92.2 %100 % (1:07 pm)77 % (7:53 am)
Barometer1016.9 hPa1018.6 hPa (11:53 pm)1014.9 hPa (1:53 am)
Wind Speed1.6 km/h11.1 km/h (9:53 am)
Weather ElementAverage
Visibility6 km
Wind DirectionNE (39.8 °)

Weather ElementTotal
Precipitation4.06 mm
Heating Degree Days8 (Base 18.3)
Growing Degree Days0.4 (Base 10)
Averaged from 48 records on 5 February, 2013
WEATHER CONDITIONS BREAKOUT
WIND DIRECTION BREAKOUT
WEATHER BY HOUR - 5 FEBRUARY, 2013
[ °F ]   °C
Local TimeTemperatureDewpointHumidityBarometerVisibilityWind DirectionWind SpeedGust SpeedPrecipitationEventsConditions
1:53 AM7.8 °C4.4 °C79 %1014.9 hPa16.1 kmCalmOvercast
2:53 AM6.7 °C3.9 °C82 %1014.9 hPa16.1 kmCalmMostly Cloudy
3:53 AM7.2 °C5 °C86 %1014.9 hPa16.1 kmCalmOvercast
4:53 AM8.3 °C5 °C80 %1015.6 hPa16.1 kmNNW (340°)5.6 km/hOvercast
5:53 AM8.3 °C5.6 °C83 %1015.6 hPa16.1 kmCalmOvercast
6:53 AM8.3 °C6.1 °C86 %1016.3 hPa16.1 kmCalmOvercast
7:09 AM9 °C6 °C82 %1016.6 hPa16.1 kmCalmOvercast
7:53 AM10 °C6.1 °C77 %1017.3 hPa16.1 kmNorth (350°)5.6 km/hOvercast
8:53 AM9.4 °C6.7 °C83 %1017.6 hPa4.8 kmCalm0 mmRainLight Rain
9:53 AM10 °C7.8 °C86 %1018.3 hPa6.4 kmNorth (360°)11.1 km/h0 mmRainLight Rain
10:04 AM9 °C8 °C93 %1018.3 hPa4 kmNNE (20°)9.3 km/h0.25 mmRainLight Rain
10:33 AM10 °C9 °C94 %1017.9 hPa2.9 kmNNE (30°)9.3 km/h1.27 mmRainLight Rain
10:37 AM10 °C9 °C94 %1017.9 hPa4.8 kmNE (50°)5.6 km/h1.27 mmRainLight Rain
10:53 AM10 °C8.9 °C93 %1017.9 hPa9.7 kmCalm1.27 mmOvercast
11:53 AM10.6 °C9.4 °C92 %1017.6 hPa9.7 kmCalmOvercast
12:02 PM11 °C9 °C88 %1017.6 hPa6.4 kmCalm0 mmRainLight Rain
12:50 PM11 °C10 °C94 %1017.3 hPa8 kmCalm0 mmOvercast
12:53 PM11.1 °C10 °C93 %1017.3 hPa8 kmCalm0 mmOvercast
1:07 PM11 °C11 °C100 %1016.9 hPa3.2 kmCalmOvercast
1:22 PM12 °C11 °C94 %1016.9 hPa4.8 kmCalmOvercast
1:53 PM12.2 °C11.1 °C93 %1016.6 hPa6.4 kmCalmOvercast
2:27 PM13 °C11 °C88 %1016.3 hPa8 kmCalmOvercast
2:53 PM12.8 °C11.1 °C89 %1016.3 hPa9.7 kmCalmOvercast
3:53 PM13.9 °C11.1 °C83 %1015.9 hPa9.7 kmCalmHaze
4:05 PM14 °C12 °C88 %1015.9 hPa9.7 kmCalmOvercast
4:53 PM13.3 °C11.7 °C90 %1016.3 hPa9.7 kmNNE (20°)7.4 km/h0 mmOvercast
5:42 PM12 °C11 °C94 %1015.9 hPa6.4 kmCalmScattered Clouds
5:53 PM11.1 °C10.6 °C97 %1015.9 hPa2.9 kmCalmPartly Cloudy
5:56 PM11 °C11 °C100 %1015.9 hPa1.3 kmCalmMist
6:02 PM11 °C11 °C100 %1015.9 hPa0.3 kmCalmFogFog
6:22 PM11 °C10 °C94 %1016.3 hPa0.3 kmCalmFogFog
6:36 PM12 °C11 °C94 %1016.9 hPa1.6 kmNNW (330°)5.6 km/hMostly Cloudy
6:39 PM12 °C11 °C94 %1016.9 hPa4.8 kmNNW (330°)7.4 km/hMostly Cloudy
6:53 PM10.6 °C10.6 °C100 %1016.9 hPa4 kmCalmMostly Cloudy
6:59 PM10 °C9 °C94 %1016.9 hPa2.9 kmCalmMostly Cloudy
7:08 PM11 °C10 °C94 %1016.9 hPa1.3 kmCalmScattered Clouds
7:12 PM10 °C10 °C100 %1016.9 hPa0.3 kmCalmFogFog
7:19 PM10 °C9 °C94 %1017.3 hPa0.3 kmCalmFogFog
7:53 PM9.4 °C8.9 °C97 %1017.6 hPa0.3 kmCalmFogFog
8:53 PM10 °C9.4 °C96 %1017.9 hPa0.3 kmCalmFogFog
9:08 PM10 °C9 °C94 %1018.3 hPa1.3 kmCalmOvercast
9:16 PM10 °C10 °C100 %1018.3 hPa1.9 kmCalmOvercast
9:29 PM10 °C10 °C100 %1018.3 hPa1.3 kmCalmOvercast
9:48 PM11 °C10 °C94 %1018.3 hPa0.3 kmCalmFogFog
9:53 PM10.6 °C10.6 °C100 %1018.3 hPa0.3 kmCalmFogFog
10:20 PM11 °C11 °C100 %1018.3 hPa0.3 kmCalmFogFog
10:53 PM10.6 °C10.6 °C100 %1018.3 hPa0.3 kmENE (60°)5.6 km/hFogFog
11:53 PM10 °C10 °C100 %1018.6 hPa0.3 kmNNE (20°)5.6 km/hFogFog
Hourly data recorded from KTCL, located 0 kilometers away from Eoline, Alabama







STORIES FROM OUR PARTNERS